Location: Ahstedt
(52.2048°N, 10.1060°E)
Time: 21:01:21
(UTC+00:00)

Cosmos 1408 Rocket - Pass Details

Date: 18 January 2026
Orbit: 594 x 623 km, 82.6° (Epoch: 16 February)

Event Time Altitude Azimuth Distance (km) Brightness Sun altitude
Exits shadow 05:28:06 25° 249° (WSW) 1,231 4.6 -16.4°
Maximum altitude 05:29:43 33° 289° (WNW) 1,021 4.1 -16.1°
Drops below altitude 10° 05:33:38 10° 355° (N) 1,951 5.9 -15.5°
Sets 05:36:02 0° 5° (N) 2,855 6.9 -15.2°
